Time,TemperatureF,DewpointF,PressureIn,WindDirection,WindDirectionDegrees,WindSpeedMPH,WindSpeedGustMPH,Humidity,HourlyPrecipIn,Conditions,Clouds,dailyrainin,SoftwareType,DateUTC
2013-01-09 00:02:00,36.0,32.0,30.39,WNW,300,2.0,-999.0,86,0.00,,,-99.99,,2013-01-09 05:02:00,
2013-01-09 00:12:00,34.0,32.0,30.39,WNW,300,2.0,-999.0,93,0.00,,,-99.99,,2013-01-09 05:12:00,
2013-01-09 00:22:00,36.0,32.0,30.39,North,0,0.0,-999.0,86,0.00,,,-99.99,,2013-01-09 05:22:00,
2013-01-09 00:32:00,34.0,32.0,30.38,North,0,0.0,-999.0,93,0.00,,,-99.99,,2013-01-09 05:32:00,
2013-01-09 00:42:00,34.0,32.0,30.37,North,0,0.0,-999.0,93,0.00,,,-99.99,,2013-01-09 05:42:00,
2013-01-09 00:52:00,32.0,32.0,30.38,North,10,2.0,-999.0,100,0.00,,,-99.99,,2013-01-09 05:52:00,
2013-01-09 01:02:00,32.0,32.0,30.38,North,10,2.0,-999.0,100,0.00,,,-99.99,,2013-01-09 06:02:00,
2013-01-09 01:11:00,32.0,32.0,30.39,North,10,2.0,-999.0,100,0.00,,,-99.99,,2013-01-09 06:11:00,
2013-01-09 01:21:00,36.0,32.0,30.38,North,0,0.0,-999.0,86,0.00,,,-99.99,,2013-01-09 06:21:00,
2013-01-09 01:32:00,36.0,32.0,30.38,East,90,1.0,-999.0,86,0.00,,,-99.99,,2013-01-09 06:32:00,
2013-01-09 01:42:00,34.0,32.0,30.38,ESE,110,2.0,-999.0,93,0.00,,,-99.99,,2013-01-09 06:42:00,
2013-01-09 01:52:00,34.0,32.0,30.38,North,10,1.0,-999.0,93,0.00,,,-99.99,,2013-01-09 06:52:00,
2013-01-09 02:02:00,34.0,32.0,30.38,North,10,1.0,-999.0,93,0.00,,,-99.99,,2013-01-09 07:02:00,
2013-01-09 02:11:00,32.0,32.0,30.38,North,0,0.0,-999.0,100,0.00,,,-99.99,,2013-01-09 07:11:00,
2013-01-09 02:21:00,36.0,32.0,30.38,North,0,0.0,-999.0,86,0.00,,,-99.99,,2013-01-09 07:21:00,
2013-01-09 02:32:00,36.0,32.0,30.37,North,0,0.0,-999.0,86,0.00,,,-99.99,,2013-01-09 07:32:00,
2013-01-09 02:42:00,36.0,32.0,30.37,North,0,0.0,-999.0,86,0.00,,,-99.99,,2013-01-09 07:42:00,
2013-01-09 02:52:00,32.0,30.0,30.37,North,350,2.0,-999.0,92,0.00,,,-99.99,,2013-01-09 07:52:00,
2013-01-09 03:01:00,32.0,30.0,30.37,North,350,2.0,-999.0,92,0.00,,,-99.99,,2013-01-09 08:01:00,
2013-01-09 03:11:00,34.0,32.0,30.36,ESE,120,1.0,-999.0,93,0.00,,,-99.99,,2013-01-09 08:11:00,
2013-01-09 03:22:00,32.0,30.0,30.36,North,0,0.0,-999.0,92,0.00,,,-99.99,,2013-01-09 08:22:00,
2013-01-09 03:32:00,32.0,32.0,30.36,North,0,0.0,-999.0,100,0.00,,,-99.99,,2013-01-09 08:32:00,
2013-01-09 03:42:00,32.0,32.0,30.37,North,0,0.0,-999.0,100,0.00,,,-99.99,,2013-01-09 08:42:00,
2013-01-09 03:52:00,32.0,30.0,30.37,North,0,0.0,-999.0,92,0.00,,,-99.99,,2013-01-09 08:52:00,
2013-01-09 04:02:00,32.0,30.0,30.37,North,0,0.0,-999.0,92,0.00,,,-99.99,,2013-01-09 09:02:00,
2013-01-09 04:11:00,36.0,32.0,30.36,North,0,0.0,-999.0,86,0.00,,,-99.99,,2013-01-09 09:11:00,
2013-01-09 04:22:00,32.0,30.0,30.35,North,0,0.0,-999.0,92,0.00,,,-99.99,,2013-01-09 09:22:00,
2013-01-09 04:32:00,34.0,32.0,30.35,North,0,0.0,-999.0,93,0.00,,,-99.99,,2013-01-09 09:32:00,
2013-01-09 04:42:00,34.0,32.0,30.35,South,170,1.0,-999.0,93,0.00,,,-99.99,,2013-01-09 09:42:00,
2013-01-09 04:52:00,34.0,32.0,30.35,North,0,0.0,-999.0,93,0.00,,,-99.99,,2013-01-09 09:52:00,
2013-01-09 05:01:00,34.0,32.0,30.35,North,0,0.0,-999.0,93,0.00,,,-99.99,,2013-01-09 10:01:00,
2013-01-09 05:11:00,34.0,32.0,30.36,South,190,2.0,-999.0,93,0.00,,,-99.99,,2013-01-09 10:11:00,
2013-01-09 05:21:00,34.0,32.0,30.36,SW,220,5.0,-999.0,93,0.00,,,-99.99,,2013-01-09 10:21:00,
2013-01-09 05:32:00,36.0,32.0,30.35,SSW,210,5.0,-999.0,86,0.00,,,-99.99,,2013-01-09 10:32:00,
2013-01-09 05:42:00,36.0,32.0,30.35,SW,220,2.0,-999.0,86,0.00,,,-99.99,,2013-01-09 10:42:00,
2013-01-09 05:52:00,34.0,32.0,30.35,SSW,200,1.0,-999.0,93,0.00,,,-99.99,,2013-01-09 10:52:00,
2013-01-09 06:02:00,34.0,32.0,30.35,SSW,200,1.0,-999.0,93,0.00,,,-99.99,,2013-01-09 11:02:00,
2013-01-09 06:11:00,32.0,30.0,30.35,West,260,1.0,-999.0,92,0.00,,,-99.99,,2013-01-09 11:11:00,
2013-01-09 06:22:00,34.0,32.0,30.35,West,260,2.0,-999.0,93,0.00,,,-99.99,,2013-01-09 11:22:00,
2013-01-09 06:32:00,32.0,32.0,30.36,WNW,300,1.0,-999.0,100,0.00,,,-99.99,,2013-01-09 11:32:00,
2013-01-09 06:42:00,32.0,32.0,30.36,North,10,1.0,-999.0,100,0.00,,,-99.99,,2013-01-09 11:42:00,
2013-01-09 06:52:00,32.0,32.0,30.36,North,350,1.0,-999.0,100,0.00,,,-99.99,,2013-01-09 11:52:00,
2013-01-09 07:02:00,32.0,32.0,30.36,North,350,1.0,-999.0,100,0.00,,,-99.99,,2013-01-09 12:02:00,
2013-01-09 07:11:00,34.0,32.0,30.36,SW,230,1.0,-999.0,93,0.00,,,0.00,,2013-01-09 12:11:00,
2013-01-09 07:22:00,32.0,32.0,30.36,North,0,0.0,-999.0,100,0.00,,,0.00,,2013-01-09 12:22:00,
2013-01-09 07:32:00,30.0,30.0,30.36,North,0,0.0,-999.0,100,0.00,,,0.00,,2013-01-09 12:32:00,
2013-01-09 07:42:00,32.0,30.0,30.35,North,0,0.0,-999.0,92,0.00,,,0.00,,2013-01-09 12:42:00,
2013-01-09 07:52:00,34.0,32.0,30.36,North,0,0.0,-999.0,93,0.00,,,0.00,,2013-01-09 12:52:00,
2013-01-09 08:02:00,34.0,32.0,30.36,North,0,0.0,-999.0,93,0.00,,,0.00,,2013-01-09 13:02:00,
2013-01-09 08:11:00,32.0,32.0,30.36,North,10,2.0,-999.0,100,0.00,,,-99.99,,2013-01-09 13:11:00,
2013-01-09 08:22:00,32.0,32.0,30.36,North,10,2.0,-999.0,100,0.00,,,-99.99,,2013-01-09 13:22:00,
2013-01-09 08:32:00,32.0,32.0,30.36,North,10,1.0,-999.0,100,0.00,,,-99.99,,2013-01-09 13:32:00,
2013-01-09 08:42:00,34.0,34.0,30.37,South,180,3.0,-999.0,100,0.00,,,-99.99,,2013-01-09 13:42:00,
2013-01-09 08:52:00,34.0,32.0,30.37,South,180,2.0,-999.0,93,0.00,,,-99.99,,2013-01-09 13:52:00,
2013-01-09 09:02:00,34.0,32.0,30.37,South,180,2.0,-999.0,93,0.00,,,-99.99,,2013-01-09 14:02:00,
2013-01-09 09:11:00,36.0,34.0,30.37,SSE,160,2.0,-999.0,93,0.00,,,-99.99,,2013-01-09 14:11:00,
2013-01-09 09:22:00,36.0,34.0,30.37,South,170,2.0,-999.0,93,0.00,,,-99.99,,2013-01-09 14:22:00,
2013-01-09 09:32:00,36.0,34.0,30.36,South,170,2.0,-999.0,93,0.00,,,-99.99,,2013-01-09 14:32:00,
2013-01-09 09:42:00,37.0,34.0,30.36,South,170,2.0,-999.0,86,0.00,,,-99.99,,2013-01-09 14:42:00,
2013-01-09 09:52:00,37.0,34.0,30.34,South,180,3.0,-999.0,86,0.00,,,-99.99,,2013-01-09 14:52:00,
2013-01-09 10:03:00,37.0,34.0,30.34,South,180,3.0,-999.0,86,0.00,,,-99.99,,2013-01-09 15:03:00,
2013-01-09 10:11:00,37.0,34.0,30.34,North,0,0.0,-999.0,86,0.00,,,-99.99,,2013-01-09 15:11:00,
2013-01-09 10:21:00,39.0,34.0,30.35,SSW,200,5.0,-999.0,80,0.00,,,-99.99,,2013-01-09 15:21:00,
2013-01-09 10:32:00,39.0,36.0,30.35,South,190,3.0,-999.0,86,0.00,,,-99.99,,2013-01-09 15:32:00,
2013-01-09 10:42:00,39.0,36.0,30.35,SW,230,2.0,-999.0,86,0.00,,,-99.99,,2013-01-09 15:42:00,
2013-01-09 10:52:00,43.0,36.0,30.35,West,270,5.0,-999.0,75,0.00,,,-99.99,,2013-01-09 15:52:00,
2013-01-09 11:03:00,43.0,36.0,30.35,West,270,5.0,-999.0,75,0.00,,,-99.99,,2013-01-09 16:03:00,
2013-01-09 11:11:00,45.0,36.0,30.33,WSW,250,6.0,-999.0,70,0.00,,,-99.99,,2013-01-09 16:11:00,
2013-01-09 11:22:00,46.0,36.0,30.33,WSW,250,5.0,-999.0,65,0.00,,,-99.99,,2013-01-09 16:22:00,
2013-01-09 11:32:00,46.0,37.0,30.33,SW,230,8.0,-999.0,70,0.00,,,-99.99,,2013-01-09 16:32:00,
2013-01-09 11:43:00,46.0,36.0,30.32,SW,230,8.0,-999.0,65,0.00,,,-99.99,,2013-01-09 16:43:00,
2013-01-09 11:52:00,46.0,36.0,30.31,West,260,5.0,-999.0,65,0.00,,,-99.99,,2013-01-09 16:52:00,
2013-01-09 12:02:00,46.0,36.0,30.31,West,260,5.0,-999.0,65,0.00,,,-99.99,,2013-01-09 17:02:00,
2013-01-09 12:11:00,46.0,36.0,30.30,WSW,240,6.0,-999.0,65,0.00,,,-99.99,,2013-01-09 17:11:00,
2013-01-09 12:22:00,45.0,36.0,30.30,WSW,240,5.0,-999.0,70,0.00,,,-99.99,,2013-01-09 17:22:00,
2013-01-09 12:32:00,45.0,36.0,30.29,West,270,3.0,-999.0,70,0.00,,,-99.99,,2013-01-09 17:32:00,
2013-01-09 12:42:00,45.0,36.0,30.30,West,280,6.0,-999.0,70,0.00,,,-99.99,,2013-01-09 17:42:00,
2013-01-09 12:52:00,45.0,36.0,30.30,West,280,6.0,-999.0,70,0.00,,,-99.99,,2013-01-09 17:52:00,
2013-01-09 13:02:00,45.0,36.0,30.30,West,280,6.0,-999.0,70,0.00,,,-99.99,,2013-01-09 18:02:00,
2013-01-09 13:11:00,45.0,36.0,30.30,West,260,5.0,-999.0,70,0.00,,,-99.99,,2013-01-09 18:11:00,
2013-01-09 13:22:00,45.0,36.0,30.30,West,280,5.0,-999.0,70,0.00,,,-99.99,,2013-01-09 18:22:00,
2013-01-09 13:32:00,45.0,36.0,30.30,WSW,250,5.0,-999.0,70,0.00,,,-99.99,,2013-01-09 18:32:00,
2013-01-09 13:42:00,45.0,36.0,30.28,South,170,2.0,-999.0,70,0.00,,,-99.99,,2013-01-09 18:42:00,
2013-01-09 13:52:00,45.0,37.0,30.27,WSW,240,2.0,-999.0,75,0.00,,,-99.99,,2013-01-09 18:52:00,
2013-01-09 14:02:00,45.0,37.0,30.27,WSW,240,2.0,-999.0,75,0.00,,,-99.99,,2013-01-09 19:02:00,
2013-01-09 14:12:00,45.0,37.0,30.25,SSW,200,7.0,-999.0,75,0.00,,,-99.99,,2013-01-09 19:12:00,
2013-01-09 14:22:00,45.0,37.0,30.24,SW,230,6.0,-999.0,75,0.00,,,-99.99,,2013-01-09 19:22:00,
2013-01-09 14:32:00,45.0,37.0,30.23,SSW,200,3.0,-999.0,75,0.00,,,-99.99,,2013-01-09 19:32:00,
2013-01-09 14:42:00,45.0,37.0,30.22,South,170,5.0,-999.0,75,0.00,,,-99.99,,2013-01-09 19:42:00,
2013-01-09 14:52:00,45.0,37.0,30.22,South,190,6.0,-999.0,75,0.00,,,-99.99,,2013-01-09 19:52:00,
2013-01-09 15:01:00,45.0,37.0,30.22,South,190,6.0,-999.0,75,0.00,,,-99.99,,2013-01-09 20:01:00,
2013-01-09 15:11:00,45.0,37.0,30.21,SSW,210,7.0,-999.0,75,0.00,,,-99.99,,2013-01-09 20:11:00,
2013-01-09 15:22:00,45.0,37.0,30.20,WSW,240,5.0,-999.0,75,0.00,,,-99.99,,2013-01-09 20:22:00,
2013-01-09 15:32:00,45.0,37.0,30.21,SSW,200,3.0,-999.0,75,0.00,,,-99.99,,2013-01-09 20:32:00,
2013-01-09 15:42:00,45.0,37.0,30.21,SW,220,5.0,-999.0,75,0.00,,,-99.99,,2013-01-09 20:42:00,
2013-01-09 15:52:00,45.0,37.0,30.20,SW,230,3.0,-999.0,75,0.00,,,-99.99,,2013-01-09 20:52:00,
2013-01-09 16:02:00,45.0,37.0,30.20,SW,230,3.0,-999.0,75,0.00,,,-99.99,,2013-01-09 21:02:00,
2013-01-09 16:11:00,45.0,37.0,30.20,SW,220,7.0,-999.0,75,0.00,,,-99.99,,2013-01-09 21:11:00,
2013-01-09 16:21:00,45.0,37.0,30.20,SW,220,8.0,-999.0,75,0.00,,,-99.99,,2013-01-09 21:21:00,
2013-01-09 16:32:00,45.0,37.0,30.20,WSW,240,7.0,-999.0,75,0.00,,,-99.99,,2013-01-09 21:32:00,
2013-01-09 16:42:00,45.0,37.0,30.20,WSW,250,1.0,-999.0,75,0.00,,,-99.99,,2013-01-09 21:42:00,
2013-01-09 16:52:00,45.0,37.0,30.21,SW,230,3.0,-999.0,75,0.00,,,-99.99,,2013-01-09 21:52:00,
2013-01-09 17:02:00,45.0,37.0,30.21,SW,230,3.0,-999.0,75,0.00,,,-99.99,,2013-01-09 22:02:00,
2013-01-09 17:11:00,45.0,37.0,30.21,West,280,7.0,-999.0,75,0.00,,,-99.99,,2013-01-09 22:11:00,
2013-01-09 17:22:00,45.0,37.0,30.23,WNW,300,6.0,-999.0,75,0.00,,,-99.99,,2013-01-09 22:22:00,
2013-01-09 17:32:00,45.0,37.0,30.23,West,280,8.0,-999.0,75,0.00,,,-99.99,,2013-01-09 22:32:00,
2013-01-09 17:42:00,45.0,37.0,30.23,WNW,300,8.0,-999.0,75,0.00,,,-99.99,,2013-01-09 22:42:00,
2013-01-09 17:52:00,45.0,37.0,30.24,West,270,10.0,-999.0,75,0.00,,,-99.99,,2013-01-09 22:52:00,
2013-01-09 18:02:00,45.0,37.0,30.24,West,270,10.0,-999.0,75,0.00,,,-99.99,,2013-01-09 23:02:00,
2013-01-09 18:12:00,45.0,37.0,30.23,WSW,240,6.0,-999.0,75,0.00,,,-99.99,,2013-01-09 23:12:00,
2013-01-09 18:22:00,46.0,37.0,30.23,West,260,6.0,-999.0,70,0.00,,,-99.99,,2013-01-09 23:22:00,
2013-01-09 18:32:00,45.0,37.0,30.24,West,280,7.0,-999.0,75,0.00,,,-99.99,,2013-01-09 23:32:00,
2013-01-09 18:42:00,45.0,37.0,30.24,WNW,290,9.0,-999.0,75,0.00,,,-99.99,,2013-01-09 23:42:00,
2013-01-09 18:52:00,43.0,37.0,30.26,WNW,290,8.0,-999.0,81,0.00,,,-99.99,,2013-01-09 23:52:00,
2013-01-09 19:02:00,43.0,37.0,30.26,WNW,290,8.0,-999.0,81,0.00,,,-99.99,,2013-01-10 00:02:00,
2013-01-09 19:11:00,43.0,37.0,30.26,West,280,6.0,-999.0,81,0.00,,,-99.99,,2013-01-10 00:11:00,
2013-01-09 19:22:00,45.0,37.0,30.25,West,280,9.0,-999.0,75,0.00,,,-99.99,,2013-01-10 00:22:00,
2013-01-09 19:32:00,45.0,37.0,30.26,WNW,290,7.0,-999.0,75,0.00,,,-99.99,,2013-01-10 00:32:00,
2013-01-09 19:42:00,43.0,37.0,30.26,WNW,290,8.0,-999.0,81,0.00,,,-99.99,,2013-01-10 00:42:00,
2013-01-09 19:52:00,46.0,39.0,30.26,WNW,290,7.0,-999.0,75,0.00,,,-99.99,,2013-01-10 00:52:00,
2013-01-09 20:02:00,46.0,39.0,30.26,WNW,290,7.0,-999.0,75,0.00,,,-99.99,,2013-01-10 01:02:00,
2013-01-09 20:11:00,46.0,37.0,30.26,WNW,290,9.0,-999.0,70,0.00,,,-99.99,,2013-01-10 01:11:00,
2013-01-09 20:21:00,46.0,37.0,30.27,West,260,8.0,-999.0,70,0.00,,,-99.99,,2013-01-10 01:21:00,
2013-01-09 20:32:00,46.0,37.0,30.27,NW,320,8.0,-999.0,70,0.00,,,-99.99,,2013-01-10 01:32:00,
2013-01-09 20:42:00,46.0,37.0,30.27,West,270,8.0,-999.0,70,0.00,,,-99.99,,2013-01-10 01:42:00,
2013-01-09 20:52:00,48.0,37.0,30.27,WSW,240,8.0,-999.0,66,0.00,,,-99.99,,2013-01-10 01:52:00,
2013-01-09 21:02:00,48.0,37.0,30.27,WSW,240,8.0,-999.0,66,0.00,,,-99.99,,2013-01-10 02:02:00,
2013-01-09 21:12:00,48.0,37.0,30.28,West,270,10.0,-999.0,66,0.00,,,-99.99,,2013-01-10 02:12:00,
2013-01-09 21:21:00,48.0,36.0,30.27,West,260,12.0,-999.0,61,0.00,,,-99.99,,2013-01-10 02:21:00,
2013-01-09 21:32:00,48.0,36.0,30.27,WSW,250,8.0,-999.0,61,0.00,,,-99.99,,2013-01-10 02:32:00,
2013-01-09 21:42:00,48.0,36.0,30.27,WSW,250,8.0,-999.0,61,0.00,,,-99.99,,2013-01-10 02:42:00,
2013-01-09 21:52:00,48.0,36.0,30.27,WSW,250,8.0,-999.0,61,0.00,,,-99.99,,2013-01-10 02:52:00,
2013-01-09 22:02:00,46.0,36.0,30.28,West,280,7.0,-999.0,65,0.00,,,-99.99,,2013-01-10 03:02:00,
2013-01-09 22:11:00,46.0,36.0,30.28,West,270,9.0,-999.0,65,0.00,,,-99.99,,2013-01-10 03:11:00,
2013-01-09 22:22:00,46.0,34.0,30.29,West,270,5.0,-999.0,61,0.00,,,-99.99,,2013-01-10 03:22:00,
2013-01-09 22:32:00,46.0,34.0,30.29,WSW,240,7.0,-999.0,61,0.00,,,-99.99,,2013-01-10 03:32:00,
2013-01-09 22:42:00,46.0,34.0,30.29,West,260,6.0,-999.0,61,0.00,,,-99.99,,2013-01-10 03:42:00,
2013-01-09 22:52:00,45.0,32.0,30.29,West,260,5.0,-999.0,61,0.00,,,-99.99,,2013-01-10 03:52:00,
2013-01-09 23:02:00,45.0,32.0,30.29,West,260,5.0,-999.0,61,0.00,,,-99.99,,2013-01-10 04:02:00,
2013-01-09 23:11:00,45.0,34.0,30.30,WNW,300,5.0,-999.0,65,0.00,,,-99.99,,2013-01-10 04:11:00,
2013-01-09 23:21:00,45.0,32.0,30.31,West,270,6.0,-999.0,61,0.00,,,-99.99,,2013-01-10 04:21:00,
2013-01-09 23:32:00,45.0,32.0,30.31,West,260,5.0,-999.0,61,0.00,,,-99.99,,2013-01-10 04:32:00,
2013-01-09 23:42:00,45.0,32.0,30.31,West,270,6.0,-999.0,61,0.00,,,-99.99,,2013-01-10 04:42:00,
2013-01-09 23:52:00,45.0,32.0,30.31,West,260,6.0,-999.0,61,0.00,,,-99.99,,2013-01-10 04:52:00,